"Pseudo-MPEC" for XA675XA

Created 2024 Sep 5 17:22:42 UT using Find_Orb

Click here for an explanation of pseudo-MPECs

 
 Astrometry: 
     XA675XA*KB2024 08 31.78038 22 49 37.99 +04 17 37.7    ~91FM 22.1 GVNEOCPN86
     XA675XA KB2024 08 31.79495 22 49 35.42 +04 18 08.7    ~91FM 22.5 GVNEOCPN86
     XA675XA KB2024 08 31.80950 22 49 32.86 +04 18 39.3    ~91FM 22.2 GVNEOCPN86
     XA675XA KC2024 08 31.86733 22 49 22.84 +04 20 40.9    ~91FM 22.1 GVNEOCPN86
     XA675XA KC2024 08 31.87503 22 49 21.58 +04 20 58.3    ~91FM 22.2 GVNEOCPN86
     XA675XA KC2024 08 31.88230 22 49 20.31 +04 21 13.5    ~91FM 22.3 GVNEOCPN86
     XA675XA KB2024 09 03.69384 22 41 22.49 +06 04 47.2    ~942M 22.3 GVNEOCPN86
     XA675XA KB2024 09 03.70835 22 41 19.62 +06 05 20.6    ~942M 21.8 GVNEOCPN86
     XA675XA KB2024 09 03.72288 22 41 16.71 +06 05 53.8    ~942M 22.3 GVNEOCPN86
     XA675XA KC2024 09 04.68244 22 38 19.22 +06 43 08.0    ~94IM 22.4 GVNEOCPN86
     XA675XA KC2024 09 04.69697 22 38 16.19 +06 43 43.3    ~94IM 21.7 GVNEOCPN86
     XA675XA KC2024 09 04.71153 22 38 13.19 +06 44 18.0    ~94IM 21.6 GVNEOCPN86
     XA675XA KC2024 09 05.17843122 36 44.20 +07 02 50.0    ~9557 22.5 GVNEOCPH21
     XA675XA KC2024 09 05.18485822 36 42.85 +07 03 05.4    ~9557 22.4 GVNEOCPH21
     XA675XA KC2024 09 05.18820122 36 42.09 +07 03 13.0    ~9557 21.6 GVNEOCPH21
     XA675XA KC2024 09 05.19136322 36 41.43 +07 03 20.4    ~9557 22.6 GVNEOCPH21

Station data:
(H21) Astronomical Research Observatory, Westfield  (N39.483054 W87.968270)
   US/Illinois.  Observer R. Holmes. Measurers S. Foglia, L. Buzzi, T.
   Linder, R. Holmes. 0.76-m f/3.0 astrograph + CCD0.81-m f/4.0 astrograph +
   CCD0.61-m f/4.5 astrograph + CCD0.40-m f/5.32 astrograph + CCD.
(N86) Xingming Observatory-KATS, Nanshan  (N43.473806 E87.178520)  China.
   Observers Observers X. Gao, Q.-Z. Ye. Measurer Q.-Z. Ye. 0.28-m f/2.2
   Schmidt.

Orbital elements:  XA675XA
   Perihelion 2024 Dec 4.36421 +/- 0.117 TT =  8:44:28 (JD 2460648.86421)
Epoch 2024 Sep  5.0 TT = JDT 2460558.5   Earth MOID: 0.0275   Ma: 0.0347
M 292.67975719 +/- 0.52             (J2000 ecliptic)             AutoNEOCP
n   0.74498786 +/- 0.00484          Peri.  112.11144 +/- 0.11
a   1.20513745 +/- 0.00522          Node   325.75107 +/- 0.08
e   0.2413101 +/- 0.00425           Incl.    6.56644 +/- 0.13
P   1.323/483.220d         H 25.35  G  0.15   U  9.2
q 0.91432552 +/- 0.00117    Q 1.49594938 +/- 0.0116
From 16 observations 2024 Aug. 31-Sept. 5; mean residual 0".39
Residuals in arcseconds: 
240831 N86  .21-  .20-    240903 N86  .25+  .37+    240905 H21  .17+  .16+    
240831 N86  .49-  .01-    240903 N86  .26+  .30+    240905 H21  .26+  .13+    
240831 N86  .71-  .16-    240903 N86  .14-  .01+    240905 H21  .54-  .30-    
240831 N86  .17-  .69-    240904 N86  .53+  .60-    240905 H21  .42-  .49-    
240831 N86  .84+  .46+    240904 N86  .09-  .26+    
240831 N86  .55+  .31+    240904 N86  .05-  .47+    

Ephemerides (geocentric):
Date (UTC) HH   RA             Dec           delta  r     elong  mag " sig PA
---- --------  ------------   ------------  ------ ------ -----  --- --------
2024 09 05 17  22 34 59.801   +07 24 35.68  .15329 1.1568 164.9 22.4 .442 130
2024 09 05 18  22 34 51.574   +07 26 16.71  .15316 1.1566 164.8 22.4 .436 128
2024 09 05 19  22 34 43.334   +07 27 57.84  .15303 1.1564 164.8 22.4 .431 126
2024 09 05 20  22 34 35.080   +07 29 39.08  .15290 1.1563 164.7 22.4 .426 124
2024 09 05 21  22 34 26.813   +07 31 20.43  .15277 1.1561 164.7 22.4 .421 122
2024 09 05 22  22 34 18.532   +07 33 01.89  .15264 1.1560 164.7 22.4 .416 120
2024 09 05 23  22 34 10.239   +07 34 43.45  .15251 1.1558 164.6 22.4 .412 117
2024 09 06 00  22 34 01.931   +07 36 25.12  .15238 1.1556 164.6 22.4 .408 115
2024 09 06 01  22 33 53.611   +07 38 06.90  .15225 1.1555 164.5 22.4 .405 113
2024 09 06 02  22 33 45.277   +07 39 48.79  .15212 1.1553 164.5 22.4 .402 110
2024 09 06 03  22 33 36.929   +07 41 30.78  .15199 1.1552 164.4 22.4 .400 108
2024 09 06 04  22 33 28.568   +07 43 12.88  .15186 1.1550 164.4 22.3 .399 105
2024 09 06 05  22 33 20.194   +07 44 55.08  .15174 1.1548 164.4 22.3 .398 102
2024 09 06 06  22 33 11.807   +07 46 37.40  .15161 1.1547 164.3 22.3 .397 100
2024 09 06 07  22 33 03.406   +07 48 19.82  .15148 1.1545 164.3 22.3 .398  97
2024 09 06 08  22 32 54.991   +07 50 02.35  .15135 1.1543 164.2 22.3 .399  94
2024 09 06 09  22 32 46.564   +07 51 44.98  .15122 1.1542 164.2 22.3 .401  92
2024 09 06 10  22 32 38.122   +07 53 27.72  .15110 1.1540 164.1 22.3 .404  89
2024 09 06 11  22 32 29.668   +07 55 10.57  .15097 1.1539 164.1 22.3 .407  86
2024 09 06 12  22 32 21.200   +07 56 53.52  .15084 1.1537 164.1 22.3 .412  83
2024 09 06 13  22 32 12.719   +07 58 36.58  .15071 1.1535 164.0 22.3 .417  81
2024 09 06 14  22 32 04.224   +08 00 19.75  .15059 1.1534 164.0 22.3 .423  78
2024 09 06 15  22 31 55.716   +08 02 03.03  .15046 1.1532 163.9 22.3 .429  76
2024 09 06 16  22 31 47.195   +08 03 46.41  .15033 1.1530 163.9 22.3 .437  73
2024 09 06 17  22 31 38.660   +08 05 29.89  .15021 1.1529 163.8 22.3 .445  70
2024 09 06 18  22 31 30.113   +08 07 13.49  .15008 1.1527 163.8 22.3 .454  68
2024 09 06 19  22 31 21.551   +08 08 57.18  .14996 1.1526 163.7 22.3 .464  66
2024 09 06 20  22 31 12.976   +08 10 40.99  .14983 1.1524 163.7 22.3 .475  63
2024 09 06 21  22 31 04.388   +08 12 24.90  .14971 1.1522 163.6 22.3 .486  61
2024 09 06 22  22 30 55.787   +08 14 08.92  .14958 1.1521 163.6 22.3 .498  59
2024 09 06 23  22 30 47.172   +08 15 53.04  .14946 1.1519 163.6 22.3 .511  57
2024 09 07 00  22 30 38.544   +08 17 37.27  .14933 1.1517 163.5 22.3 .524  55
2024 09 07 01  22 30 29.903   +08 19 21.60  .14921 1.1516 163.5 22.3 .538  53
2024 09 07 02  22 30 21.248   +08 21 06.04  .14908 1.1514 163.4 22.3 .553  51
2024 09 07 03  22 30 12.580   +08 22 50.59  .14896 1.1513 163.4 22.3 .568  49
2024 09 07 04  22 30 03.899   +08 24 35.24  .14884 1.1511 163.3 22.3 .584  47
2024 09 07 05  22 29 55.204   +08 26 20.00  .14871 1.1509 163.3 22.3 .600  46
2024 09 07 06  22 29 46.496   +08 28 04.86  .14859 1.1508 163.2 22.3 .617  44
2024 09 07 07  22 29 37.775   +08 29 49.83  .14847 1.1506 163.2 22.3 .634  42
2024 09 07 08  22 29 29.041   +08 31 34.90  .14834 1.1505 163.1 22.3 .652  41
2024 09 07 09  22 29 20.293   +08 33 20.08  .14822 1.1503 163.1 22.3 .671  40
2024 09 07 10  22 29 11.532   +08 35 05.36  .14810 1.1501 163.0 22.3 .690  38
2024 09 07 11  22 29 02.757   +08 36 50.75  .14797 1.1500 163.0 22.3 .709  37
2024 09 07 12  22 28 53.969   +08 38 36.24  .14785 1.1498 162.9 22.3 .729  35
2024 09 07 13  22 28 45.168   +08 40 21.84  .14773 1.1496 162.9 22.3 .750  34
2024 09 07 14  22 28 36.354   +08 42 07.54  .14761 1.1495 162.8 22.3 .771  33
2024 09 07 15  22 28 27.526   +08 43 53.35  .14749 1.1493 162.8 22.3 .792  32
2024 09 07 16  22 28 18.686   +08 45 39.26  .14737 1.1492 162.7 22.3 .814  31